Regional Weather Roundup
Issued by NWS

Home | Current Version | Previous Version | Graphics & Text | Print | Product List | Glossary On
Versions: 1 2 3 4 5 6 7 8 9 10 11 12 13 14 15 16 17 18 19 20 21 22 23 24 25 26 27 28 29 30 31 32 33 34 35 36 37 38 39 40 41 42 43 44 45 46 47 48 49 50
000
ASUS43 KFSD 031402
RWRSD

WEATHER ROUNDUP FOR SOUTH DAKOTA
NATIONAL WEATHER SERVICE SIOUX FALLS SD
900 AM CDT WED JUN 03 2015

NOTE: "FAIR" INDICATES FEW OR NO CLOUDS BELOW 12,000 FEET WITH NO
SIGNIFICANT WEATHER AND/OR OBSTRUCTIONS TO VISIBILITY.


SDZ001>005-009-010-012>017-031500-
NORTHWEST AND NORTH CENTRAL SOUTH DAKOTA

CITY           SKY/WX    TMP DP  RH WIND       PRES   REMARKS
BUFFALO          N/A     54  48  80 N14       29.96R
FAITH            N/A     57  49  74 N23G30    29.97R
MOBRIDGE       CLOUDY    57  53  86 N18G25    29.91R
$$

SDZ012>016-024>037-041>051-057-063-072>074-031500-
SOUTHWEST AND SOUTH CENTRAL SOUTH DAKOTA

CITY           SKY/WX    TMP DP  RH WIND       PRES   REMARKS
RAPID CTY ARPT PTSUNNY   57  52  83 N20       30.01R
PIERRE         CLOUDY    60  55  83 N13       29.92R
CUSTER         MOSUNNY   59  45  59 CALM      30.08R
ELLSWORTH AFB  CLOUDY    55  54  94 N18       30.01
PHILIP         CLOUDY    57  53  86 NW9       29.99R
PINE RIDGE     SUNNY     59  52  77 CALM      30.01R
WINNER         FAIR      65  56  72 NW14      29.91R
$$

SDZ004>011-016>023-039-040-031500-
NORTHEAST SOUTH DAKOTA

CITY           SKY/WX    TMP DP  RH WIND       PRES   REMARKS
ABERDEEN       CLOUDY    63  58  83 NW13      29.84S
WATERTOWN      LGT RAIN  64  62  93 W10       29.81R FOG
BROOKINGS      CLOUDY    66  61  82 NW9       29.85S THUNDER
SISSETON         N/A     66  63  90 NW14      29.77S
$$

SDZ017-020-022-023-036>040-048>070-031500-
SOUTHEAST SOUTH DAKOTA

CITY           SKY/WX    TMP DP  RH WIND       PRES   REMARKS
SIOUX FALLS    LGT RAIN  66  62  87 W16       29.81R
HURON          CLOUDY    62  60  93 NW15      29.82F
CHAMBERLAIN    PTSUNNY   64  57  79 N15       29.87S
MITCHELL       CLOUDY    67  63  87 SW3       29.83S
YANKTON        CLOUDY    64  63  94 CALM      29.83F
$$

ABBREVIATIONS USED IN REMARKS
   TC - TEMPERATURE IN CELSIUS
  WCI - WIND CHILL INDEX
   HX - HEAT INDEX
  VSB - VISIBILITY




USA.gov is the U.S. government's official web portal to all federal, state and local government web resources and services.